Preview of NWS' New Version of Forecast
This preview is not operational and should not be used for support decisions.

Regional Weather Roundup (RWR)

Issued by National Weather Service (NWS)

                            
000
ASUS42 KTBW 202318
RWRFL 
FLORIDA REGIONAL WEATHER ROUNDUP
NATIONAL WEATHER SERVICE TAMPA BAY RUSKIN FL
700 PM EDT SAT JUL 20 2019

NOTE: "FAIR" INDICATES FEW OR NO CLOUDS BELOW 12,000 FEET WITH NO
SIGNIFICANT WEATHER AND/OR OBSTRUCTIONS TO VISIBILITY.

FLZ001>010-012>015-112-114-115-210000-
PANHANDLE FLORIDA
  
CITY           SKY/WX    TMP DP  RH WIND       PRES   REMARKS
PENSACOLA      FAIR      83  73  72 SW8       30.01F                  
PENSACOLA NAS  FAIR      84  74  71 S10       30.01F                  
MILTON NAS     PTSUNNY   83  73  72 SW5       30.01S                  
CRESTVIEW      FAIR      85  70  60 S5        30.02F                  
DUKE FIELD     FAIR      83  71  65 SW3       30.00F                  
VALPARAISO     FAIR      81  74  77 S6        30.00F                  
MARY ESTHER    PTSUNNY   82  72  70 S7        30.00F                  
TRI COUNTY     FAIR      86  72  62 W3        30.01F                  
PANAMA CITY    FAIR      84  71  65 SW6       30.00F                  
TYNDALL AFB    FAIR      82  73  72 SW3       30.01R                  
APALACHICOLA   FAIR      84  72  67 SW7       30.02S                  

STATION/POSITION SKY/WX   TEMP    WIND        PRES    WAVE   SWELL
                          AIR SEA DIR/SP/G            HT/PER HT/PER
                          (F)     (DEG/KT/KT) (MB)    (FT/S) (FT/S)
30.1N   87.6W              82 87  220/  8/ 10 1016.7F   2/ 4   2/ 9
29.2N   88.2W              82     180/  6/  8 1016.5
28.8N   86.0W                 86  130/  2/  4 1016.2S   1/ 5   2/ 5
PANAMA CITY BEAC           82 87  240/  7/  9 1017.0F
TOWER C                    81     340/  3/  3 1017.3R
28.5N   84.5W              82      20/  6/  8 1017.5R   2/ 4

$$
FLZ011-016>038-118-127-128-134-139-239-210000-
NORTH FLORIDA
  
CITY           SKY/WX    TMP DP  RH WIND       PRES   REMARKS
MARIANNA       FAIR      85  73  67 S3        30.00F                  
TALLAHASSEE    FAIR      81  73  76 NW6       30.04R                  
PERRY          FAIR      88  72  58 CALM      30.04R                  
LIVE OAK       SUNNY     88  73  62 W7        30.03S HX  96           
CROSS CITY     FAIR      77  72  84 NW5       30.04F                  
LAKE CITY      PTSUNNY   86  73  66 SW10G16   30.05R THUNDER          
GAINESVILLE    FAIR      74  72  93 W7        30.08R                  
WILLISTON      PTSUNNY   74  73  95 S6        30.05F                  
PALATKA        FAIR      84  73  70 S5        30.04R                  
MAYPORT NAS    FAIR      85  76  74 S13       30.02R                  
JACKSONVILLE   PTSUNNY   87  73  62 E8        30.01R THUNDER          
JAX NAS        PTSUNNY   86  70  58 W6        30.02R THUNDER          
JAX CECIL      MOSUNNY   77  75  94 NW7       30.00F                  
FERNANDINA BEA FAIR      85  76  74 SE10      30.02R HX  95           
ST AUGUSTINE   FAIR      84  74  71 SE10      30.04R                  
PALM COAST     MOSUNNY   86  73  66 SE9       30.04R                  

STATION/POSITION SKY/WX   TEMP    WIND        PRES    WAVE   SWELL
                          AIR SEA DIR/SP/G            HT/PER HT/PER
                          (F)     (DEG/KT/KT) (MB)    (FT/S) (FT/S)
SHELL POINT      NOT AVBL
KEATON BEACH               83     250/  3/  4 1017.4R
CEDAR KEY                  86     280/  3/  5 1017.6R
FERNANDINA                 89 88  140/  7/ 13 1017.2
30.7N   81.3W                 84                N/A     2/ 9
MAYPORT                    85 85  140/ 12/ 15 1016.7
31.4N   80.9W              83 85  150/ 12/ 14 1016.5F   2/ 9   2/ 9
ST AUGUSTINE               81 82  160/ 11/ 11 1017.3R

$$
FLZ040-043>046-052-053-057-058-063-144-210000-
INTERIOR CENTRAL FLORIDA
  
CITY           SKY/WX    TMP DP  RH WIND       PRES   REMARKS
OCALA          FAIR      79  71  76 W6        30.07R                  
LEESBURG       CLOUDY    83  73  72 SW10      30.07R                  
SANFORD        FAIR      86  73  65 S9        30.05R                  
ORLANDO EXEC   FAIR      85  73  67 SE12      30.05R                  
ORLANDO INTL   PTSUNNY   83  74  74 S6        30.05R                  
KISSIMMEE      FAIR      81  76  84 CALM      30.06R                  
WINTER HAVEN   LGT RAIN  80  76  87 SW5       30.07R                  
LAKELAND       CLOUDY    73  72  94 VRB5      30.08R                  
BARTOW         CLOUDY    79  75  89 SW9       30.06R                  
SEBRING        FAIR      83  75  77 NW3       30.04S                  
OKEECHOBEE     TSTM      73  72  94 NE5       30.03S                  

$$
FLZ041-047-054-059-064-141-147-210000-
EAST CENTRAL FLORIDA
  
CITY           SKY/WX    TMP DP  RH WIND       PRES   REMARKS
ORMOND BEACH   SUNNY     86  73  66 SE9       30.03R                  
DAYTONA BEACH  FAIR      86  77  74 SE8       30.04R HX  97           
DELAND         LGT RAIN  81  75  83 W3        30.05R                  
NEW SMYRNA BEA MOSUNNY   84  75  74 SE10      30.05R                  
JFK SPACE CTR  SUNNY     85  66  53 SE8       30.04R                  
TITUSVILLE     MOSUNNY   88  73  62 S10       30.05R HX  96           
CAPE CANAVERAL SUNNY     85  56  37 SE7       30.03R                  
PATRICK AFB    FAIR      84  79  84 SE7       30.04R HX  96           
MELBOURNE      FAIR      85  76  74 E6        30.05R                  
VERO BEACH     FAIR      85  74  69 SE8       30.04R                  
FT PIERCE      FAIR      85  75  72 E7        30.03S                  
STUART         MOSUNNY   86  73  66 SE6       30.04F                  

STATION/POSITION SKY/WX   TEMP    WIND        PRES    WAVE   SWELL
                          AIR SEA DIR/SP/G            HT/PER HT/PER
                          (F)     (DEG/KT/KT) (MB)    (FT/S) (FT/S)
28.5N   80.2W              84 85  140/  8/ 10 1017.0F   2/ 8   2/ 8
28.9N   78.5W              85 87  130/  2/  6   N/A     3/ 8   3/ 8
TRIDENT PIER               84 84  120/  4/  8 1018.4
28.4N   80.5W                 82                N/A     1/ 9
27.5N   80.2W                 83                N/A     2/ 4

$$
FLZ050-056-061-142-242-148-248-149-249-151-251-155-255-
160-260-210000-
WEST CENTRAL FLORIDA
  
CITY           SKY/WX    TMP DP  RH WIND       PRES   REMARKS
CRYSTAL RIVER  FAIR      73  72  94 CALM      30.03F THUNDER          
INVERNESS      PTSUNNY   79  73  83 NE7       30.06S                  
BROOKSVILLE    TSTM      74  70  87 SE9       30.07R                  
CLEARWATER AIR FAIR      75  70  83 SE7       30.07R                  
ST PETE CLEARW TSTM      72  69  90 S10       30.07R                  
TAMPA INTL     TSTM      76  72  87 NW8       30.08R                  
TAMPA EXEC     LGT RAIN  75  70  83 CALM      30.08R                  
PLANT CITY     FAIR     N/A N/A N/A MISG      30.09S                  
MACDILL AFB    LGT RAIN  75  71  86 W6        30.05F                  
PETER O KNIGHT LGT RAIN  77  73  88 W5        30.06F                  
ST PETERSBURG  TSTM      75  71  87 SW5       30.03F                  
SARASOTA       PTSUNNY   73  68  84 S6        30.00F THUNDER          
VENICE         LGT RAIN  75  73  94 E8        30.05S                  

STATION/POSITION SKY/WX   TEMP    WIND        PRES    WAVE   SWELL
                          AIR SEA DIR/SP/G            HT/PER HT/PER
                          (F)     (DEG/KT/KT) (MB)    (FT/S) (FT/S)
27.3N   84.2W                 88                N/A     1/ 4
CLEARWATER BEACH           79 89  140/ 13/ 23 1018.0R
MIDDLE TAMPA BAY           75     210/  2/  3 1019.8R
VENICE                     74 86   80/  7/  8 1017.2F

$$
FLZ066-069-070-075>078-162-262-165-265-210000-
SOUTHWEST FLORIDA AND KEYS
  
CITY           SKY/WX    TMP DP  RH WIND       PRES   REMARKS
PUNTA GORDA    LGT RAIN  76  74  93 CALM      30.07R                  
FT MYERS       FAIR      76  74  93 N9        30.04R                  
SOUTHWEST INTL FAIR      77  74  90 N6        30.04R                  
MARCO ISLAND   FAIR      84  76  76 MISG      30.04R                  
IMMOKALEE      FAIR      81  77  89 W3        30.01R                  
MARATHON       FAIR      88  75  65 SE7       30.01S HX  97           
KEY WEST NAS   PTSUNNY   88  75  65 SE12      30.00S HX  97           
KEY WEST INTL  FAIR      87  76  69 E13       30.01R HX  97           

STATION/POSITION SKY/WX   TEMP    WIND        PRES    WAVE   SWELL
                          AIR SEA DIR/SP/G            HT/PER HT/PER
                          (F)     (DEG/KT/KT) (MB)    (FT/S) (FT/S)
NAPLES                     82 87              1016.6R
26.0N   85.6W              86 86   90/  4/  6 1016.2F   2/ 5   2/ 5
DRY TORTUGAS               86      90/ 10/ 11 1016.1S
SAND KEY                   86     110/  9/ 11 1014.9F
SOMBRERO KEY               85     100/ 10/ 12 1016.2
LONG KEY                   86                 1015.5

$$
FLZ067-068-071>074-168-172>174-210000-
SOUTHEAST FLORIDA 
  
CITY           SKY/WX    TMP DP  RH WIND       PRES   REMARKS
W PALM BEACH   PTSUNNY   84  73  69 SE8       30.03S                  
BOCA RATON     MOSUNNY   82  77  83 E5        30.02S                  
FT LAUDER-EXEC FAIR      85  73  67 E10       30.01S                  
FT LAUDERDALE  PTSUNNY   84  73  69 SE12      30.01R                  
POMPANO BEACH  FAIR      86  74  67 E7        30.01F                  
PEMBROKE PINES FAIR      86  73  65 E8        30.03R                  
OPA LOCKA      FAIR      86  73  65 SE9       30.02R                  
MIAMI          PTSUNNY   86  72  62 SE12      30.02R                  
WEST KENDALL   FAIR      86  75  69 SE10      30.01S HX  95           
HOMESTEAD      FAIR      86  77  72 E9        30.01R HX  97           

STATION/POSITION SKY/WX   TEMP    WIND        PRES    WAVE   SWELL
                          AIR SEA DIR/SP/G            HT/PER HT/PER
                          (F)     (DEG/KT/KT) (MB)    (FT/S) (FT/S)
PORT EVERGLADES            84     140/  6/  9 1016.2
VIRGINIA KEY               84 89  110/  8/ 10 1016.1S
LAKE WORTH                 82 85  180/  7/  9 1017.8
FOWEY ROCKS                84 86